Erie, PA

11:08 AM EST on November 18, 2019 (GMT -0500)
Erie International

Weather History for KERI - September, 2019

Change the Weather History Date:

Friday, September 13, 2019

  Actual Average Record
Temperature  
Mean Temperature 73 °F 65 °F  
Max Temperature 82 °F 73 °F 92 °F (1931)
Min Temperature 63 °F 57 °F 43 °F (1955)
Degree Days  
Heating Degree Days 0 3  
Month to date heating degree days 8 21  
Since 1 July heating degree days 9 39  
Cooling Degree Days 8 3  
Month to date cooling degree days 57 45  
Year to date cooling degree days 747 603  
Growing Degree Days 23 (Base 50)    
Moisture  
Dew Point 62 °F    
Average Humidity 76    
Maximum Humidity 88    
Minimum Humidity 58    
Precipitation  
Precipitation 0.47 in 0.15 in 1.93 in (1977)
Month to date precipitation 3.12 1.80  
Year to date precipitation 29.44 27.63  
Snow  
Snow 0.00 in 0.00 in - ()
Month to date snowfall 0.0 0.0  
Since 1 July snowfall 0.0 0.0  
Since 1 September snowfall 0.0 0.0  
Snow Depth 0.00 in    
Sea Level Pressure  
Sea Level Pressure 30.13 in    
Wind  
Wind Speed 12 mph ()    
Max Wind Speed 31 mph    
Max Gust Speed 44 mph    
Visibility 9.3 miles    
Events Rain , Thunderstorm    
T = Trace of Precipitation, MM = Missing Value Source: Averaged Metar Reports

Daily Weather History Graph

Daily Weather History Graph

Search for Another Location

Airport or City:

Astronomy

Sep. 13, 2019 Rise Set
Actual Time 6:58 AM EDT 7:34 PM EDT
Civil Twilight 6:30 AM EDT 8:02 PM EDT
Nautical Twilight 5:56 AM EDT 8:35 PM EDT
Astronomical Twilight 5:22 AM EDT 9:09 PM EDT
Moon 7:48 PM EDT (9/13) 6:11 AM EDT (9/13)
Length of Visible Light 13h 31m
Length of Day
12h 35m
Full, 100% of the Moon is Illuminated
Sep 13
Full
Sep 14
Full
Sep 21
Last Quarter
Sep 28
New
Oct 5
First Quarter

Hourly Weather History & Observations

Time (EDT) Temp. Heat Index Dew Point Humidity Pressure Visibility Wind Dir Wind Speed Gust Speed Precip Events Conditions
12:51 AM 63.0 °F - 57.0 °F 81% 30.24 in 10.0 mi ENE 10.4 mph - N/A   Overcast
1:51 AM 63.0 °F - 57.0 °F 81% 30.23 in 10.0 mi ENE 10.4 mph - N/A   Overcast
2:51 AM 64.0 °F - 57.9 °F 80% 30.21 in 10.0 mi East 6.9 mph - N/A   Overcast
3:51 AM 64.0 °F - 57.9 °F 80% 30.20 in 10.0 mi East 5.8 mph - N/A   Overcast
4:10 AM 64.0 °F - 57.9 °F 80% 30.20 in 10.0 mi ESE 4.6 mph - N/A   Overcast
4:51 AM 64.0 °F - 57.9 °F 80% 30.20 in 10.0 mi SE 5.8 mph - N/A   Overcast
5:13 AM 64.9 °F - 57.9 °F 78% 30.21 in 10.0 mi SSE 8.1 mph - N/A   Overcast
5:51 AM 64.9 °F - 59.0 °F 81% 30.19 in 10.0 mi SE 6.9 mph - N/A   Overcast
6:18 AM 64.9 °F - 59.0 °F 81% 30.20 in 10.0 mi SSE 8.1 mph - N/A   Scattered Clouds
6:51 AM 64.9 °F - 59.0 °F 81% 30.19 in 10.0 mi Variable 4.6 mph - N/A   Partly Cloudy
7:51 AM 66.0 °F - 59.0 °F 78% 30.19 in 10.0 mi SSE 12.7 mph 20.7 mph N/A   Clear
8:51 AM 68.0 °F - 61.0 °F 78% 30.19 in 10.0 mi SSE 18.4 mph 24.2 mph N/A   Clear
9:51 AM 69.1 °F - 61.0 °F 75% 30.19 in 10.0 mi SSE 19.6 mph 29.9 mph N/A   Mostly Cloudy
10:51 AM 73.0 °F - 63.0 °F 71% 30.17 in 10.0 mi SSE 19.6 mph 26.5 mph N/A   Clear
11:51 AM 73.9 °F - 64.0 °F 71% 30.15 in 10.0 mi SSE 19.6 mph 28.8 mph N/A Thunderstorm Scattered Clouds
12:51 PM 77.0 °F - 64.9 °F 66% 30.15 in 10.0 mi SSE 13.8 mph 20.7 mph N/A Thunderstorm Mostly Cloudy
1:07 PM 77.0 °F - 64.9 °F 66% 30.15 in 10.0 mi SSE 15.0 mph 24.2 mph N/A   Mostly Cloudy
1:51 PM 79.0 °F - 66.0 °F 64% 30.13 in 10.0 mi SSE 13.8 mph - N/A   Mostly Cloudy
2:51 PM 82.0 °F 84.5 °F 66.9 °F 60% 30.10 in 10.0 mi SSE 17.3 mph 26.5 mph N/A   Clear
3:51 PM 82.0 °F 84.5 °F 66.9 °F 60% 30.08 in 10.0 mi South 18.4 mph 27.6 mph N/A   Clear
4:51 PM 81.0 °F 83.3 °F 66.9 °F 62% 30.06 in 10.0 mi SSE 17.3 mph 29.9 mph N/A   Clear
5:51 PM 79.0 °F - 64.9 °F 62% 30.05 in 10.0 mi SSE 21.9 mph 28.8 mph N/A   Clear
6:51 PM 75.0 °F - 63.0 °F 66% 30.05 in 10.0 mi SSE 19.6 mph 29.9 mph N/A   Clear
7:51 PM 70.0 °F - 61.0 °F 73% 30.04 in 10.0 mi SSE 25.3 mph 41.4 mph 0.00 in Rain Light Rain
8:51 PM 69.1 °F - 60.1 °F 73% 30.00 in 10.0 mi SSE 24.2 mph 35.7 mph 0.00 in   Clear
9:39 PM 66.9 °F - 61.0 °F 81% 30.08 in 7.0 mi South 19.6 mph 39.1 mph 0.02 in Rain , Thunderstorm Light Thunderstorms and Rain
9:51 PM 68.0 °F - 62.1 °F 81% 30.07 in 10.0 mi SSE 16.1 mph 29.9 mph 0.02 in Rain , Thunderstorm Light Thunderstorms and Rain
10:08 PM 69.1 °F - 62.1 °F 78% 30.07 in 10.0 mi SSE 18.4 mph - 0.00 in Thunderstorm Scattered Clouds
10:51 PM 66.9 °F - 62.1 °F 84% 30.07 in 10.0 mi South 20.7 mph 28.8 mph 0.01 in Rain , Thunderstorm Light Rain
11:12 PM 66.9 °F - 62.1 °F 84% 30.10 in 2.5 mi South 18.4 mph 28.8 mph 0.03 in Rain , Thunderstorm Rain
11:39 PM 66.0 °F - 62.1 °F 87% 30.08 in 8.0 mi South 16.1 mph 24.2 mph 0.13 in Rain Light Rain
11:46 PM 66.2 °F - 62.6 °F 88% 30.08 in 5.0 mi South 19.6 mph 28.8 mph 0.15 in Rain , Thunderstorm Rain
11:51 PM 66.0 °F - 62.1 °F 87% 30.09 in 4.0 mi South 20.7 mph 28.8 mph 0.16 in Rain , Thunderstorm Rain